Weather in Lake Elsinore

United States     33°37′41″N   117°22′12″W
temp.,
°C
wind,
m/s
gust,
m/s
humid.,
%
clouds,
%
prec.,
mm/h
press.,
hPa
HPBL,
m
25 may, wed
wed2523:00+15e01780 0.0 101111
02:00+15nne11740 0.0 101011
05:00+15nne11730 0.0 101011
08:00+23se00420 0.0 1011191
11:00+31wsw11230 0.0 10101012
14:00+32w23230 0.0 10091426
17:00+30sw12315 0.0 1009985
20:00+20ssw12625 0.0 101115
26 may, thu
thu2623:00+16s11795 0.0 101311
02:00+15ese01865 0.0 101211
05:00+14ene00885 0.0 101211
08:00+20ese006225 0.0 1013282
11:00+28ssw122917 0.0 10121058
14:00+32sw34195 0.0 10101909
17:00+28s43250 0.0 10111109
20:00+18sse22560 0.0 101421
27 may, fri
fri2723:00+14ssw117598 0.0 101511
02:00+13se118576 0.0 101410
05:00+12nnw00875 0.0 101410
08:00+17sse00625 0.0 1015309
11:00+25wsw023295 0.0 10141075
14:00+29w2325100 0.0 10121678
17:00+26sw2231100 0.0 1012997
20:00+18sse1256100 0.0 101319
28 may, sat
sat2823:00+13s1181100 0.0 101411
02:00+11s119157 0.0 101210
05:00+10sse119421 0.0 101310
08:00+15se227313 0.0 1012367
11:00+23s22415 0.0 10111121
14:00+27wsw24305 0.0 10081584
17:00+25sw44355 0.0 10071001
20:00+16s33650 0.0 100859
29 may, sun
sun2923:00+11sse229313 0.0 101039
02:00+12sse349276 0.0 1008256
05:00+13sse4585100 0.0 1008435
08:00+15s337493 0.0 1008647
11:00+21w244118 0.0 10071334
14:00+26w56270 0.0 10041805
17:00+23wsw66360 0.0 10041406
20:00+15ssw44630 0.0 100552